Погода в Карвине

Чехия     49°51′13″N   18°33′01″E
темп.,
°C
ветер,
м/с
пор.,
м/с
влажн.,
%
обл.,
%
осадки,
мм/ч
давл.,
гПа
погр.,
м
8 марта, пн
пн801:00−1юз017622 0.0 1018169
04:00−1св128097 0.0 1018246
07:00−1св018895 0.1 101884
10:00+1сз358499 0.4 1019578
13:00+3с445599 0.8 10201301
16:00+2с444786 0.1 10201504
19:00−1ссв355743 0.1 1022310
22:00−2всв12600 0.0 102364
9 марта, вт
вт901:00−2ссз006424 0.0 102341
04:00−2зсз116751 0.0 102266
07:00−2с006726 0.0 1023107
10:00+1ссв115044 0.0 10231023
13:00+2ссз224266 0.0 10221248
16:00+2ссз224394 0.0 1020927
19:00−1вюв115186 0.0 102159
22:00−1ююв115799 0.0 102240
10 марта, ср
ср1001:00−1ю115786 0.0 102128
04:00−1ююз125554 0.0 102039
07:00−1ю125345 0.0 102164
10:00+2зюз235298 0.0 1020861
13:00+4зюз335698 0.0 10201088
16:00+3зюз347198 0.1 1019736
19:000ююз238578 0.1 102099
22:00−1ююз238863 0.0 102191
11 марта, чт
чт1101:000ю348676 0.0 1020116
04:00+1ю3586100 0.0 1018141
07:00+2ю41378100 0.0 1016481
10:00+4ююз61477100 0.4 1014957
13:00+4ююз81784100 1.6 1011742
16:00+4ю61679100 0.1 1009651
19:00+6ю71770100 0.1 1008590
22:00+7ююз51776100 0.1 1008727
12 марта, пт
пт1201:00+7юз61484100 1.4 1008634
04:00+6юз51384100 0.1 1009693
07:00+5зюз5138286 0.1 1010828
10:00+7з8135966 0.2 10121686
13:00+8з7105481 0.3 10131688
16:00+8з6105384 0.1 10121703
19:00+4ююз237152 0.1 101497
22:00+3ююз23720 0.0 101579